TimeCST,TemperatureF,Dew PointF,Humidity,Sea Level PressureIn,VisibilityMPH,Wind Direction,Wind SpeedMPH,Gust SpeedMPH,PrecipitationIn,Events,Conditions,WindDirDegrees,DateUTC
12:53 AM,55.0,53.1,93,29.70,10.0,South,29.9,34.5,N/A,,Partly Cloudy,170,2013-02-07 06:53:00
1:11 AM,55.4,53.6,94,29.74,10.0,South,27.6,35.7,N/A,,Mostly Cloudy,170,2013-02-07 07:11:00
1:53 AM,55.9,53.1,90,29.70,10.0,South,28.8,-,N/A,,Overcast,180,2013-02-07 07:53:00
2:40 AM,55.4,51.8,88,29.74,10.0,South,21.9,28.8,N/A,,Partly Cloudy,180,2013-02-07 08:40:00
2:53 AM,55.0,52.0,89,29.70,10.0,South,21.9,29.9,N/A,,Partly Cloudy,180,2013-02-07 08:53:00
3:53 AM,53.1,51.1,93,29.74,10.0,WNW,9.2,-,N/A,,Partly Cloudy,290,2013-02-07 09:53:00
4:05 AM,53.6,51.8,94,29.78,10.0,WNW,9.2,-,N/A,,Mostly Cloudy,300,2013-02-07 10:05:00
4:53 AM,54.0,51.1,90,29.77,10.0,NW,6.9,-,N/A,,Overcast,320,2013-02-07 10:53:00
5:03 AM,53.6,51.8,94,29.81,10.0,NW,4.6,-,N/A,,Overcast,320,2013-02-07 11:03:00
5:27 AM,53.6,51.8,94,29.82,10.0,NNW,6.9,-,N/A,,Overcast,340,2013-02-07 11:27:00
5:40 AM,53.6,51.8,94,29.82,10.0,NNW,10.4,-,N/A,,Overcast,340,2013-02-07 11:40:00
5:53 AM,54.0,51.1,90,29.79,10.0,NNW,9.2,-,N/A,,Overcast,340,2013-02-07 11:53:00
6:07 AM,53.6,50.0,88,29.83,9.0,NNW,18.4,23.0,N/A,,Overcast,340,2013-02-07 12:07:00
6:18 AM,51.8,50.0,94,29.84,8.0,North,20.7,26.5,N/A,,Overcast,350,2013-02-07 12:18:00
6:53 AM,46.9,39.9,77,29.85,10.0,North,21.9,35.7,N/A,,Overcast,360,2013-02-07 12:53:00
7:03 AM,46.4,39.2,76,29.87,10.0,North,24.2,34.5,N/A,,Overcast,350,2013-02-07 13:03:00
7:53 AM,46.0,37.9,73,29.91,10.0,North,24.2,33.4,N/A,,Overcast,350,2013-02-07 13:53:00
8:14 AM,46.4,39.2,76,29.94,10.0,North,19.6,29.9,N/A,,Overcast,360,2013-02-07 14:14:00
8:53 AM,46.0,39.9,79,29.95,10.0,North,19.6,28.8,N/A,,Overcast,10,2013-02-07 14:53:00
9:53 AM,46.9,36.0,66,29.99,10.0,NNE,24.2,32.2,N/A,,Overcast,20,2013-02-07 15:53:00
10:15 AM,46.4,35.6,66,30.02,10.0,North,21.9,32.2,N/A,,Mostly Cloudy,360,2013-02-07 16:15:00
10:53 AM,45.0,33.1,63,30.04,10.0,North,21.9,34.5,N/A,,Overcast,10,2013-02-07 16:53:00
11:53 AM,48.9,32.0,52,30.04,10.0,North,25.3,32.2,N/A,,Mostly Cloudy,10,2013-02-07 17:53:00
12:07 PM,53.6,32.0,44,30.06,10.0,North,28.8,32.2,N/A,,Mostly Cloudy,10,2013-02-07 18:07:00
12:53 PM,55.0,30.0,38,30.03,10.0,NNE,25.3,35.7,N/A,,Clear,20,2013-02-07 18:53:00
1:53 PM,55.9,26.1,32,30.03,10.0,North,23.0,32.2,N/A,,Clear,360,2013-02-07 19:53:00
2:53 PM,57.0,26.1,30,30.04,10.0,North,21.9,32.2,N/A,,Clear,10,2013-02-07 20:53:00
3:53 PM,57.9,26.1,30,30.04,10.0,North,13.8,27.6,N/A,,Clear,360,2013-02-07 21:53:00
4:53 PM,57.0,26.1,30,30.05,10.0,NNE,15.0,-,N/A,,Clear,30,2013-02-07 22:53:00
5:53 PM,53.1,23.0,31,30.09,10.0,NNE,11.5,-,N/A,,Clear,20,2013-02-07 23:53:00
6:53 PM,44.1,21.9,42,30.14,10.0,NNE,5.8,-,N/A,,Clear,30,2013-02-08 00:53:00
7:53 PM,39.0,21.9,50,30.17,10.0,Calm,Calm,-,N/A,,Clear,0,2013-02-08 01:53:00
8:53 PM,37.9,21.9,53,30.20,10.0,Calm,Calm,-,N/A,,Clear,0,2013-02-08 02:53:00
9:53 PM,32.0,21.9,66,30.22,10.0,West,3.5,-,N/A,,Clear,270,2013-02-08 03:53:00
10:53 PM,34.0,21.9,61,30.23,10.0,WSW,3.5,-,N/A,,Clear,240,2013-02-08 04:53:00
11:53 PM,30.0,21.0,69,30.24,10.0,Calm,Calm,-,N/A,,Clear,0,2013-02-08 05:53:00